Location: Marcé
(47.5801°N, 0.3280°W)
Time: 18:55:06
(UTC+02:00)

X-37B - Visible Passes

Search period start: 21 September 2023 00:00
Search period end: 01 October 2023 00:00
Orbit: 277 x 277 km, 45.0° (Epoch: 01 November)

Date Brightness Start Highest point End Pass type
(mag) Time Alt. Az. Time Alt. Az. Time Alt. Az.
21 Sep 0.9 06:19:00 34° S 06:19:12 34° SSE 06:21:29 10° E visible
22 Sep 0.5 06:19:41 41° S 06:19:49 41° S 06:22:10 10° E visible
23 Sep 0.4 06:20:24 45° S 06:20:27 45° S 06:22:49 10° ESE visible
24 Sep 0.5 06:21:08 43° S 06:21:08 43° S 06:23:27 10° ESE visible
25 Sep 0.8 06:21:55 36° S 06:21:55 36° S 06:24:01 10° ESE visible
26 Sep 1.4 06:22:47 26° S 06:22:47 26° S 06:24:31 10° SE visible
27 Sep 2.1 06:23:45 18° S 06:23:45 18° S 06:24:52 10° SSE visible
28 Sep 2.8 06:24:50 11° SSE 06:24:50 11° SSE 06:24:57 10° SSE visible
